Location: Julian California
(33.0790°N, 116.6010°W)
Time: 10:10:39
(UTC-08:00)

CZ-2C R/B - Pass Details

Date: 12 July 2018
Orbit: 784 x 871 km, 98.3° (Epoch: 19 November)

Event Time Altitude Azimuth Distance (km) Brightness Sun altitude
Rises 22:04:52 0° 28° (NNE) 3,291 6.0 -22.1°
Reaches altitude 10° 22:07:39 10° 42° (NE) 2,350 5.1 -22.5°
Enters shadow 22:10:17 21° 70° (ENE) 1,699 4.1 -22.9°
